#timestamp,LO_Frequency,Hit,StdDev 
1621137615.4,286046970.8,N
1621137635.2,286046964.8,Y
1621137655.0,286046986.5,P
1621137655.9,286046986.5,P
1621137675.8,286046981.4,P
1621137695.6,286046981.5,Y
1621137715.5,286046997.6,P
1621137735.3,286046996.2,N
1621137755.1,286046996.1,N
1621137775.9,286046994.1,N
1621137795.7,286046995.6,N
1621137815.6,286046994.1,N
1621137835.4,286046994.1,N
1621137855.2,286046994.8,N
1621137875.1,286046992.6,N
1621137876.0,286046992.6,N
1621137895.8,286046991.2,N
1621137915.6,286046989.5,Y
1621137935.5,286046994.0,P
1621137955.3,286046994.7,P
1621137975.2,286046997.9,P
1621137995.9,286046996.5,N
1621138015.7,286046999.3,N
1621138035.6,286047002.6,N
1621138055.4,286047010.2,Y
1621138075.2,286047026.9,P
1621138095.1,286047025.3,N
1621138096.0,286047025.3,N
1621138115.8,286047018.0,N
1621138135.7,286047018.6,N
1621138155.5,286047020.5,N
1621138175.3,286047023.3,N
1621138195.2,286047037.5,Y
1621138215.0,286047003.5,P
1621138215.9,286047003.5,N
1621138235.8,286047009.1,N
1621138255.6,286047002.2,N
1621138275.4,286046993.9,N
1621138295.3,286046990.8,N
1621138315.1,286046991.4,N
1621138335.8,286046983.7,N
1621138355.7,286046980.8,N
1621138375.5,286046977.8,N
1621138395.4,286046975.7,N
1621138415.2,286046978.5,N
1621138435.0,286046978.6,N
1621138435.9,286046978.6,N
1621138455.8,286046979.5,N
1621138475.6,286046983.3,N
1621138495.5,286046987.3,N
1621138515.3,286046996.9,N
1621138535.1,286047000.1,N
1621138555.9,286047001.7,N
1621138575.7,286047003.5,N
1621138595.5,286047006.1,N
1621138615.4,286047015.0,N
1621138635.2,286047007.2,N
1621138655.1,286047004.8,N
1621138656.0,286047004.8,N
1621138675.8,286047007.2,N
1621138695.6,286047001.8,N
1621138715.5,286046995.2,N
1621138735.3,286046990.6,N
1621138755.1,286046987.7,N
1621138775.9,286046987.0,N
1621138795.7,286046989.7,N
1621138815.6,286046992.9,N
1621138835.4,286046987.4,N
1621138855.2,286046992.3,N
1621138875.1,286046994.1,N
1621138876.0,286046994.1,N
1621138895.8,286046989.0,N
1621138915.6,286046991.2,N
1621138935.5,286046994.2,N
1621138955.3,286046991.3,N
1621138975.2,286046987.8,N
1621138995.9,286046985.6,N
1621139015.7,286046993.0,N
1621139035.6,286047000.6,N
1621139055.4,286046997.5,N
1621139075.2,286046996.8,N
1621139095.1,286046993.3,N
1621139096.0,286046993.3,N
1621139115.8,286046988.7,N
1621139135.7,286046984.1,N
1621139155.5,286046986.3,N
1621139175.4,286046982.7,N
1621139195.2,286046988.0,N
1621139215.0,286046985.3,N
1621139215.9,286046985.3,N
1621139235.8,286046984.5,Y
1621139255.6,286047001.9,P
1621139275.5,286046999.3,N
1621139295.3,286046995.6,N
1621139315.1,286046992.1,N
1621139335.9,286046999.5,N
1621139355.7,286047006.3,N
1621139375.6,286047010.3,N
1621139395.4,286047005.9,N
1621139415.2,286047005.0,N
1621139435.1,286047011.7,N
1621139436.0,286047011.7,N
1621139455.8,286047009.9,N
1621139475.6,286047013.0,N
1621139495.5,286047017.9,N
1621139515.3,286047017.9,N
1621139535.2,286047020.3,N
1621139555.9,286047021.0,N
1621139575.7,286047025.1,N
1621139595.6,286047020.5,N
1621139615.4,286047019.4,N
1621139635.3,286047022.0,N
1621139655.1,286047017.8,N
1621139656.0,286047017.8,N
1621139675.8,286047020.4,N
1621139695.7,286047019.7,N
1621139715.5,286047024.1,N
1621139735.3,286047022.1,N
1621139755.2,286047025.5,N
1621139775.0,286047026.9,N
1621139775.9,286047026.9,N
1621139795.8,286047028.0,N
1621139815.6,286047022.8,N
1621139835.4,286047019.0,N
1621139855.3,286047021.1,N
1621139875.1,286047019.8,N
1621139895.9,286047013.6,N
1621139915.7,286047008.3,N
1621139935.5,286047007.8,N
1621139955.4,286047008.6,N
1621139975.2,286047005.0,N
1621139995.0,286047001.4,N
1621139995.9,286047001.4,N
1621140015.8,286046999.8,N
1621140035.6,286047004.4,N
1621140055.5,286047002.0,N
1621140075.3,286047001.7,N
1621140095.2,286047008.0,N
1621140115.9,286047013.9,N
1621140135.7,286047013.2,N
1621140155.6,286047018.5,N
1621140175.4,286047016.2,N
1621140195.2,286047010.3,N
1621140215.1,286047001.6,N
1621140216.0,286047001.6,N
1621140235.8,286047003.4,N
1621140255.7,286047008.8,N
1621140275.5,286047008.0,N
1621140295.3,286047005.7,N
1621140315.2,286047005.3,N
1621140335.0,286047003.2,N
1621140335.9,286047003.2,N
1621140355.8,286047006.9,N
1621140375.6,286047003.2,N
1621140395.4,286047000.4,N
1621140415.3,286046995.3,N
1621140435.1,286046989.0,N
1621140455.9,286046989.0,N
1621140475.7,286046992.5,N
1621140495.5,286046999.1,N
1621140515.4,286047004.3,N
1621140535.2,286047002.8,N
1621140555.0,286047006.4,N
1621140556.0,286047006.4,N
1621140575.8,286047008.0,N
1621140595.6,286047012.7,N
1621140615.5,286047015.1,N
1621140635.3,286047013.7,N
1621140685.2,286047019.6,E
1621140695.1,286047015.4,N
1621140696.0,286047015.4,P
1621140715.8,286047003.4,P
1621140735.7,286047003.8,N
1621140755.5,286047004.0,N
1621140775.3,286047004.8,N
1621140795.2,286047000.6,N
1621140815.0,286046997.1,N
1621140815.9,286046997.1,N
1621140835.8,286046996.2,N
1621140855.6,286046991.1,N
1621140875.5,286046984.5,N
1621140895.3,286046987.7,N
1621140915.1,286046992.6,N
1621140935.9,286046996.2,N
1621140955.7,286046998.3,N
1621140975.6,286047009.1,N
1621140995.4,286047006.0,N
1621141015.2,286047003.0,N
1621141035.1,286047010.6,N
1621141036.0,286047010.6,N
1621141055.8,286047008.7,N
1621141075.6,286047015.5,N
1621141095.5,286047022.0,N
1621141115.3,286047021.4,N
1621141135.2,286047011.3,N
1621141155.9,286047009.5,N
1621141175.7,286047012.0,N
1621141195.6,286047010.5,N
